TimePDT,TemperatureF,Dew PointF,Humidity,Sea Level PressureIn,VisibilityMPH,Wind Direction,Wind SpeedMPH,Gust SpeedMPH,PrecipitationIn,Events,Conditions,WindDirDegrees,DateUTC
12:15 AM,59.0,32.0,36,30.04,10.0,SW,5.8,-,N/A,,Clear,230,2012-09-25 07:15:00
12:35 AM,59.0,32.0,36,30.04,10.0,NW,5.8,-,N/A,,Clear,310,2012-09-25 07:35:00
12:55 AM,57.2,32.0,38,30.04,10.0,WNW,11.5,16.1,N/A,,Clear,300,2012-09-25 07:55:00
1:15 AM,57.2,32.0,38,30.03,10.0,North,4.6,-,N/A,,Clear,10,2012-09-25 08:15:00
1:35 AM,55.4,32.0,41,30.04,10.0,West,3.5,-,N/A,,Clear,260,2012-09-25 08:35:00
1:55 AM,55.4,32.0,41,30.04,10.0,Calm,Calm,-,N/A,,Clear,0,2012-09-25 08:55:00
2:15 AM,51.8,32.0,47,30.03,10.0,West,5.8,-,N/A,,Clear,280,2012-09-25 09:15:00
2:35 AM,51.8,32.0,47,30.02,10.0,North,4.6,-,N/A,,Clear,360,2012-09-25 09:35:00
2:55 AM,55.4,32.0,41,30.02,10.0,NNE,5.8,-,N/A,,Clear,20,2012-09-25 09:55:00
3:15 AM,55.4,32.0,41,30.02,10.0,North,6.9,-,N/A,,Clear,360,2012-09-25 10:15:00
3:35 AM,55.4,32.0,41,30.01,10.0,North,4.6,-,N/A,,Clear,350,2012-09-25 10:35:00
3:55 AM,55.4,32.0,41,30.01,10.0,WNW,3.5,-,N/A,,Clear,300,2012-09-25 10:55:00
4:15 AM,53.6,32.0,44,30.01,10.0,NNW,3.5,-,N/A,,Clear,340,2012-09-25 11:15:00
4:35 AM,53.6,32.0,44,30.01,10.0,Calm,Calm,-,N/A,,Clear,0,2012-09-25 11:35:00
4:55 AM,51.8,32.0,47,30.01,10.0,Calm,Calm,-,N/A,,Clear,0,2012-09-25 11:55:00
5:15 AM,48.2,32.0,54,30.01,10.0,Calm,Calm,-,N/A,,Clear,0,2012-09-25 12:15:00
5:35 AM,44.6,32.0,61,30.02,10.0,ESE,3.5,-,N/A,,Clear,120,2012-09-25 12:35:00
5:55 AM,46.4,32.0,57,30.02,10.0,Calm,Calm,-,N/A,,Clear,0,2012-09-25 12:55:00
6:15 AM,46.4,32.0,57,30.02,10.0,ESE,3.5,-,N/A,,Clear,120,2012-09-25 13:15:00
6:35 AM,46.4,32.0,57,30.02,9.0,Calm,Calm,-,N/A,,Clear,0,2012-09-25 13:35:00
6:55 AM,44.6,32.0,61,30.02,7.0,ESE,4.6,-,N/A,,Clear,120,2012-09-25 13:55:00
7:15 AM,46.4,32.0,57,30.03,8.0,Calm,Calm,-,N/A,,Clear,0,2012-09-25 14:15:00
7:35 AM,48.2,32.0,54,30.03,6.0,Calm,Calm,-,N/A,,Haze,0,2012-09-25 14:35:00
7:55 AM,53.6,32.0,44,30.03,5.0,Calm,Calm,-,N/A,,Haze,0,2012-09-25 14:55:00
8:15 AM,55.4,32.0,41,30.04,6.0,Calm,Calm,-,N/A,,Haze,0,2012-09-25 15:15:00
8:35 AM,59.0,32.0,36,30.04,8.0,Calm,Calm,-,N/A,,Clear,0,2012-09-25 15:35:00
8:55 AM,62.6,32.0,32,30.05,9.0,Calm,Calm,-,N/A,,Clear,0,2012-09-25 15:55:00
9:15 AM,66.2,32.0,28,30.05,8.0,NW,3.5,-,N/A,,Clear,320,2012-09-25 16:15:00
9:35 AM,68.0,32.0,26,30.05,8.0,NW,5.8,-,N/A,,Clear,320,2012-09-25 16:35:00
9:55 AM,69.8,32.0,25,30.05,8.0,WNW,6.9,-,N/A,,Clear,300,2012-09-25 16:55:00
10:15 AM,71.6,30.2,22,30.04,8.0,NNW,5.8,-,N/A,,Clear,330,2012-09-25 17:15:00
10:35 AM,73.4,28.4,19,30.04,9.0,NNW,5.8,-,N/A,,Clear,340,2012-09-25 17:35:00
10:55 AM,73.4,28.4,19,30.04,8.0,NW,8.1,-,N/A,,Clear,310,2012-09-25 17:55:00
11:15 AM,75.2,32.0,21,30.03,8.0,NW,9.2,-,N/A,,Clear,320,2012-09-25 18:15:00
12:15 PM,77.0,32.0,19,30.02,9.0,NW,11.5,-,N/A,,Clear,320,2012-09-25 19:15:00
12:35 PM,77.0,32.0,19,30.01,8.0,NW,12.7,16.1,N/A,,Clear,310,2012-09-25 19:35:00
12:55 PM,77.0,32.0,19,30.01,8.0,NW,15.0,-,N/A,,Clear,320,2012-09-25 19:55:00
1:15 PM,77.0,32.0,19,30.00,9.0,NW,16.1,-,N/A,,Clear,320,2012-09-25 20:15:00
1:35 PM,77.0,35.6,22,30.00,8.0,NW,16.1,21.9,N/A,,Clear,310,2012-09-25 20:35:00
1:55 PM,75.2,33.8,22,29.99,8.0,NW,17.3,-,N/A,,Clear,320,2012-09-25 20:55:00
2:15 PM,75.2,35.6,24,29.99,9.0,NW,15.0,-,N/A,,Clear,310,2012-09-25 21:15:00
2:35 PM,77.0,35.6,22,29.99,9.0,NW,13.8,21.9,N/A,,Clear,310,2012-09-25 21:35:00
2:55 PM,75.2,35.6,24,29.99,9.0,NW,15.0,21.9,N/A,,Clear,320,2012-09-25 21:55:00
3:15 PM,75.2,35.6,24,29.99,9.0,NW,16.1,21.9,N/A,,Clear,320,2012-09-25 22:15:00
3:35 PM,75.2,35.6,24,29.99,9.0,NW,15.0,19.6,N/A,,Clear,320,2012-09-25 22:35:00
3:55 PM,75.2,35.6,24,29.99,9.0,WNW,12.7,-,N/A,,Clear,300,2012-09-25 22:55:00
4:35 PM,73.4,35.6,25,29.99,9.0,NW,15.0,19.6,N/A,,Clear,310,2012-09-25 23:35:00
4:55 PM,73.4,35.6,25,29.99,9.0,WNW,16.1,-,N/A,,Clear,300,2012-09-25 23:55:00
5:15 PM,71.6,37.4,29,30.00,9.0,NW,13.8,19.6,N/A,,Clear,310,2012-09-26 00:15:00
5:35 PM,71.6,37.4,29,30.00,9.0,NW,15.0,20.7,N/A,,Clear,320,2012-09-26 00:35:00
5:55 PM,69.8,37.4,31,30.00,9.0,NW,15.0,-,N/A,,Clear,310,2012-09-26 00:55:00
6:15 PM,68.0,35.6,30,30.00,10.0,WNW,12.7,-,N/A,,Clear,300,2012-09-26 01:15:00
6:35 PM,68.0,35.6,30,30.01,9.0,WNW,8.1,-,N/A,,Clear,290,2012-09-26 01:35:00
6:55 PM,66.2,35.6,32,30.01,9.0,West,10.4,-,N/A,,Clear,280,2012-09-26 01:55:00
7:15 PM,66.2,35.6,32,30.01,10.0,West,9.2,-,N/A,,Clear,280,2012-09-26 02:15:00
7:35 PM,62.6,35.6,37,30.02,10.0,West,6.9,-,N/A,,Clear,280,2012-09-26 02:35:00
7:55 PM,62.6,35.6,37,30.02,10.0,West,6.9,-,N/A,,Clear,260,2012-09-26 02:55:00
8:15 PM,60.8,35.6,39,30.03,10.0,West,6.9,-,N/A,,Clear,270,2012-09-26 03:15:00
8:35 PM,59.0,35.6,42,30.03,10.0,NW,4.6,-,N/A,,Clear,310,2012-09-26 03:35:00
9:35 PM,59.0,35.6,42,30.03,9.0,Calm,Calm,-,N/A,,Clear,0,2012-09-26 04:35:00
9:55 PM,55.4,35.6,47,30.04,10.0,NNE,3.5,-,N/A,,Clear,30,2012-09-26 04:55:00
10:15 PM,55.4,35.6,47,30.04,10.0,Calm,Calm,-,N/A,,Clear,0,2012-09-26 05:15:00
10:35 PM,55.4,35.6,47,30.04,10.0,Calm,Calm,-,N/A,,Clear,0,2012-09-26 05:35:00
10:55 PM,53.6,35.6,51,30.04,10.0,Calm,Calm,-,N/A,,Clear,0,2012-09-26 05:55:00
11:15 PM,53.6,35.6,51,30.04,10.0,Calm,Calm,-,N/A,,Clear,0,2012-09-26 06:15:00
11:35 PM,53.6,35.6,51,30.04,10.0,SE,3.5,-,N/A,,Clear,130,2012-09-26 06:35:00
11:55 PM,50.0,35.6,58,30.04,10.0,East,3.5,-,N/A,,Clear,90,2012-09-26 06:55:00